Regional Weather Roundup
Issued by NWS

Home | Current Version | Previous Version | Graphics & Text | Print | Product List | Glossary On
Versions: 1 2 3 4 5 6 7 8 9 10 11 12 13 14 15 16 17 18 19 20 21 22 23 24 25 26 27 28 29 30 31 32 33 34 35 36 37 38 39 40 41 42 43 44 45 46 47 48 49 50
000
ASUS43 KIND 181059
RWRIN

WEATHER ROUNDUP FOR INDIANA
NATIONAL WEATHER SERVICE INDIANAPOLIS IN
600 AM EST MON DEC 18 2017

NOTE: "FAIR" INDICATES FEW OR NO CLOUDS BELOW 12,000 FEET WITH NO
SIGNIFICANT WEATHER AND/OR OBSTRUCTIONS TO VISIBILITY.

* - STATION DOES NOT REPORT WEATHER SUCH AS PRECIPITATION OR FOG.

+ - STATION NOT QUALITY CONTROLLED BY THE NATIONAL WEATHER SERVICE.
    USE DATA WITH CAUTION...ESPECIALLY DEWPOINT AND RELATIVE
    HUMIDITY OBSERVATIONS.

INZ001>003-010>013-019-020-181200-
NORTHWEST INDIANA

CITY           SKY/WX    TMP DP  RH WIND       PRES   REMARKS
GARY /AIRPORT/ CLOUDY    43  41  93 SW9       29.95S FOG
KNOX *+        CLOUDY    41  39  93 SW8       29.96F
MONTICELLO +   CLOUDY    40  39  95 SW9       29.98F FOG     WCI  35

$$

LMZ046-743>745-181200-
SOUTHERN LAKE MICHIGAN

STATION/POSITION TIME  TEMP    WIND        PRES    WAVE
                       AIR SEA DIR/SP/G            HT
                 (UTC) (F)     (DEG/KT/KT) (MB)    (FT)
BURNS HARBOR     1040   43     210/ 14/ 17 1014.2F
MICHIGAN CITY    1030   41     190/ 15/ 17   N/A

$$

INZ004-005-014>016-021>024-181200-
NORTH CENTRAL INDIANA

CITY           SKY/WX    TMP DP  RH WIND       PRES   REMARKS
GOSHEN         LGT RAIN  39  38  96 SW12      29.95F FOG     WCI  32
PERU/GRISSOM   CLOUDY    41  41 100 SW12      29.98F FOG
SOUTH BEND     CLOUDY    38  38 100 SW10      29.95F FOG     WCI  31
WARSAW +       LGT RAIN  39  37  93 SW5       29.97S WCI  36

$$

INZ006>009-017-018-025>027-181200-
NORTHEAST INDIANA

CITY           SKY/WX    TMP DP  RH WIND       PRES   REMARKS
FORT WAYNE     DRIZZLE   39  38  96 SW10      29.99F FOG     WCI  32
KENDALLVILLE + CLOUDY    38  38  97 SW9       29.96F FOG     WCI  32

$$

INZ028-029-035-036-043>045-051>053-181200-
WEST CENTRAL INDIANA

CITY           SKY/WX    TMP DP  RH WIND       PRES   REMARKS
LAFAYETTE      CLOUDY    42  41  96 SW6       30.00F FOG
TERRE HAUTE    CLOUDY    44  41  89 SW9       30.05S

$$

INZ030>032-037>040-046>048-054>057-064-065-181200-
CENTRAL INDIANA

CITY           SKY/WX    TMP DP  RH WIND       PRES   REMARKS
INDIANAPOLIS   DRIZZLE   42  41  96 SW8       30.04S FOG
-EAGLE CREEK   CLOUDY    42  40  92 SW6       30.02S FOG
KOKOMO +       LGT RAIN  40  40 100 SW13      30.00F FOG     WCI  32
MT COMFORT *+  CLOUDY    39  39 100 S6        30.03F VSB 3/4 WCI  35
SHELBYVILLE    CLOUDY    41  38  89 S8        30.04S FOG

$$

INZ033-034-041-042-049-050-058-059-181200-
EAST CENTRAL INDIANA

CITY           SKY/WX    TMP DP  RH WIND       PRES   REMARKS
MUNCIE         CLOUDY    41  38  89 SW10      30.02S FOG
RICHMOND +     FOG       36  36 100 S7        30.05S VSB<1/4 WCI  30

$$

INZ060-061-067>069-081>083-085>088-181200-
SOUTHWEST INDIANA

CITY           SKY/WX    TMP DP  RH WIND       PRES   REMARKS
EVANSVILLE     LGT RAIN  44  44 100 SW8       30.12R FOG
HUNTINGBURG +  LGT RAIN  43  43 100 S8        30.11R FOG

$$

INZ062-063-066-070>080-084-089>092-181200-
SOUTH CENTRAL AND SOUTHEAST INDIANA

CITY           SKY/WX    TMP DP  RH WIND       PRES   REMARKS
BLOOMINGTON    CLOUDY    43  40  89 SW9       30.06R FOG
MADISON *+     CLOUDY    43  41  93 SW8       30.11R
SEYMOUR +      CLOUDY    43  43 100 S6        30.08S FOG

$$





USA.gov is the U.S. government's official web portal to all federal, state and local government web resources and services.